Location: ?ejeti?ky
(50.4060°N, 14.9016°E)
Time: 21:53:56
(UTC+00:00)

STARLINK-1364 - Pass Details

Date: 06 October 2020
Orbit: 548 x 551 km, 53.0° (Epoch: 23 October)

Event Time Altitude Azimuth Distance (km) Brightness Sun altitude
Exits shadow 01:23:48 15° 73° (ENE) 1,560 6.5 -34.4°
Drops below altitude 10° 01:24:30 10° 75° (ENE) 1,829 6.9 -34.3°
Sets 01:26:46 0° 79° (E) 2,724 8.0 -34.0°
